User: anonymous   Login
Location: Santa Teresa Spring
(37.2333°N, 121.7000°W)
Time: 21:01:02
(UTC-08:00)
Language:

Cosmos 1633 - Orbit

View from above orbital plane
View from above orbital plane
View from above satellite
View from above satellite

Ground track
Ground track

The orbit data is extracted from the following two-line orbital elements,

1 15592U 85020A   17023.41889497  .00001461  00000-0  52133-4 0  9990
2 15592  82.5391 104.3128 0012942 335.4631  24.5990 15.27974107742188
Epoch (UTC): 23 January 2017 10:03:12
Eccentricity: 0.0012942
inclination: 82.5391°
perigee height: 473 km
apogee height: 491 km
right ascension of ascending node: 104.3128°
argument of perigee: 335.4631°
revolutions per day: 15.27974107
mean anomaly at epoch: 24.5990°
orbit number at epoch: 74218

The dashed part of the orbit path shows where the satellite is in the earth's shadow,  

DLR